Location: Newark
(9.4667°S, 159.8167°E)
Time: 05:41:02
(UTC+00:00)

Courier 1B Rocket - Pass Details

Date: 23 November 2019
Orbit: 920 x 1202 km, 28.2° (Epoch: 07 December)

Event Time Altitude Azimuth Distance (km) Brightness Sun altitude
Rises 16:54:53 0° 233° (SW) 3,882 - -26.6°
Exits shadow 16:56:38 - 226° (SW) 3,419 7.7 -26.2°
Reaches altitude 10° 16:59:07 10° 211° (SSW) 2,860 7.4 -25.6°
Maximum altitude 17:02:56 15° 178° (S) 2,441 7.4 -24.8°
Drops below altitude 10° 17:06:37 10° 144° (SE) 2,748 8.2 -24.0°
Sets 17:10:32 0° 121° (ESE) 3,643 9.5 -23.1°
